Location: Wildlife_Club
(35.6000°N, 81.4330°W)
Time: 02:02:44
(UTC-04:00)

Vanguard 2 - Pass Details

Date: 03 July 2019
Orbit: 553 x 2938 km, 32.9° (Epoch: 18 July)

Event Time Altitude Azimuth Distance (km) Brightness Sun altitude
Exits shadow 04:47:23 17° 188° (S) 1,666 8.8 -15.1°
Maximum altitude 04:49:02 21° 160° (SSE) 1,425 8.7 -14.9°
Drops below altitude 10° 04:52:08 10° 110° (ESE) 1,860 9.9 -14.4°
Sets 04:54:39 0° 92° (E) 2,715 11.1 -14.0°
